Weather History for Laredo, TX

Change the Weather History Date:

Saturday, December 8, 2012

  Actual Average Record
Temperature  
Mean Temperature 74 °F 58 °F  
Max Temperature 81 °F 69 °F 90 °F (2007)
Min Temperature 67 °F 48 °F 22 °F (1916)
Degree Days  
Heating Degree Days 0 8  
Month to date heating degree days 0 59  
Since 1 July heating degree days 48 174  
Cooling Degree Days 9 1  
Month to date cooling degree days 68 12  
Year to date cooling degree days 5135 4267  
Growing Degree Days 24 (Base 50)    
Moisture  
Dew Point 65 °F    
Average Humidity 77    
Maximum Humidity 93    
Minimum Humidity 60    
Precipitation  
Precipitation T in 0.02 in 0.59 in (2000)
Month to date precipitation T 0.19  
Year to date precipitation 9.34 19.51  
Sea Level Pressure  
Sea Level Pressure 29.82 in    
Wind  
Wind Speed 5 mph (SSE)    
Max Wind Speed 14 mph    
Max Gust Speed 18 mph    
Visibility 8 miles    
Events      
T = Trace of Precipitation, MM = Missing Value Source: NWS Daily Summary

Daily Weather History Graph

Daily Weather History Graph

Search for Another Location

Airport:

Trip Planner

Search our weather history database for the weather conditions in past years. The results will help you decide how hot, cold, wet, or windy it might be!

Date:

Astronomy

Dec. 08, 2012 Rise Set
Actual Time 7:16 AM CST 5:43 PM CST
Civil Twilight 6:50 AM CST 6:09 PM CST
Nautical Twilight 6:21 AM CST 6:38 PM CST
Astronomical Twilight 5:53 AM CST 7:06 PM CST
Moon 2:05 AM CST (12/8) 1:55 PM CST (12/8)
Length of Visible Light 11h 18m
Length of Day
10h 27m
Waning Crescent, 28% of the Moon is Illuminated
Dec 8
Waning Crescent
Dec 13
New
Dec 19
First Quarter
Dec 28
Full
Jan 4
Last Quarter

Hourly Weather History & Observations

Time (CST) Temp. Heat Index Dew Point Humidity Pressure Visibility Wind Dir Wind Speed Gust Speed Precip Events Conditions
12:56 AM 68.9 °F - 64.9 °F 87% 29.79 in 9.0 mi SE 5.8 mph - N/A   Clear
1:56 AM 68.0 °F - 64.9 °F 90% 29.79 in 8.0 mi Calm Calm - N/A   Mostly Cloudy
2:56 AM 68.9 °F - 66.9 °F 93% 29.78 in 8.0 mi SE 6.9 mph - N/A   Overcast
3:56 AM 70.9 °F - 66.9 °F 87% 29.79 in 8.0 mi SSE 3.5 mph - N/A   Overcast
4:28 AM 71.6 °F - 66.2 °F 83% 29.83 in 8.0 mi Calm Calm - N/A   Overcast
4:56 AM 70.9 °F - 66.9 °F 87% 29.80 in 8.0 mi SE 4.6 mph - N/A   Overcast
5:56 AM 70.9 °F - 66.9 °F 87% 29.81 in 7.0 mi ESE 4.6 mph - N/A   Overcast
6:30 AM 71.6 °F - 66.2 °F 83% 29.85 in 8.0 mi SE 4.6 mph - N/A   Overcast
6:38 AM 71.6 °F - 66.2 °F 83% 29.86 in 7.0 mi SSE 5.8 mph - N/A   Overcast
6:56 AM 70.9 °F - 66.9 °F 87% 29.83 in 8.0 mi SSE 5.8 mph - N/A   Overcast
7:56 AM 70.9 °F - 65.8 °F 84% 29.85 in 6.0 mi South 4.6 mph - N/A   Haze
8:38 AM 71.6 °F - 66.2 °F 83% 29.89 in 7.0 mi South 3.5 mph - N/A   Overcast
8:56 AM 72.0 °F - 65.8 °F 81% 29.87 in 7.0 mi Calm Calm - N/A   Overcast
9:56 AM 72.9 °F - 65.8 °F 79% 29.88 in 7.0 mi Calm Calm - N/A   Overcast
10:56 AM 73.9 °F - 65.8 °F 76% 29.88 in 6.0 mi Calm Calm - N/A   Haze
11:56 AM 75.9 °F - 64.9 °F 69% 29.86 in 7.0 mi WSW 5.8 mph - N/A   Mostly Cloudy
12:56 PM 77.9 °F - 64.9 °F 64% 29.83 in 8.0 mi ESE 5.8 mph - 0.00 in   Mostly Cloudy
1:56 PM 77.9 °F - 64.9 °F 64% 29.80 in 9.0 mi Calm Calm - N/A   Mostly Cloudy
2:25 PM 80.6 °F 82.3 °F 64.4 °F 58% 29.82 in 9.0 mi SSE 6.9 mph - N/A   Scattered Clouds
2:56 PM 79.9 °F - 64.9 °F 60% 29.78 in 9.0 mi ESE 8.1 mph - N/A   Clear
3:56 PM 79.9 °F - 64.9 °F 60% 29.78 in 9.0 mi ESE 4.6 mph - N/A   Clear
4:56 PM 79.0 °F - 64.9 °F 62% 29.78 in 9.0 mi South 6.9 mph - N/A   Clear
5:56 PM 77.0 °F - 63.9 °F 64% 29.78 in 9.0 mi South 8.1 mph - N/A   Clear
6:56 PM 74.8 °F - 63.9 °F 69% 29.80 in 9.0 mi South 5.8 mph - N/A   Clear
7:56 PM 73.4 °F - 64.4 °F 73% 29.84 in 9.0 mi SSE 4.6 mph - N/A   Clear
8:56 PM 72.0 °F - 63.9 °F 76% 29.82 in 8.0 mi ESE 4.6 mph - N/A   Clear
9:56 PM 72.0 °F - 63.9 °F 76% 29.82 in 8.0 mi SSE 9.2 mph - N/A   Clear
10:56 PM 72.0 °F - 64.9 °F 78% 29.83 in 7.0 mi SSE 12.7 mph - N/A   Clear
11:56 PM 72.0 °F - 66.9 °F 84% 29.82 in 6.0 mi SSE 9.2 mph - N/A   Haze